Location: Newark
(49.8348°N, 24.0280°E)
Time: 22:08:15
(UTC+00:00)

Explorer 7 - Pass Details

Date: 19 January 2020
Orbit: 485 x 679 km, 50.3° (Epoch: 19 February)

Event Time Altitude Azimuth Distance (km) Brightness Sun altitude
Rises 01:24:45 0° 258° (WSW) 2,554 - -45.4°
Reaches altitude 10° 01:26:53 10° 258° (WSW) 1,685 - -45.1°
Maximum altitude 01:30:41 88° 176° (S) 510 - -44.5°
Drops below altitude 10° 01:34:40 10° 81° (E) 1,760 - -43.9°
Exits shadow 01:36:37 - 81° (E) 2,549 11.0 -43.7°
Sets 01:36:57 0° 81° (E) 2,680 11.1 -43.6°
